| time (UTC) | temp F | wind direction | speed MPH | gust MPH | rain 1hr in | rain 24hr in | rain mn in | humidity % | barometer mb |
| 20260504184203 | 56 | 210 | 2.0 | 13.0 | 0.00 | 0.00 | 0.00 | 63 | 1004.7 |
| 20260504183224 | 57 | 261 | 4.0 | 12.0 | 0.00 | 0.00 | 0.00 | 63 | 1004.8 |
| 20260504182202 | 56 | 253 | 5.0 | 9.0 | 0.00 | 0.00 | 0.00 | 65 | 1004.7 |
| 20260504181203 | 54 | 229 | 4.0 | 11.0 | 0.00 | 0.00 | 0.00 | 69 | 1004.9 |
| 20260504180202 | 52 | 239 | 4.0 | 10.0 | 0.00 | 0.00 | 0.00 | 70 | 1005.0 |
| 20260504175203 | 53 | 219 | 3.0 | 13.0 | 0.00 | 0.01 | 0.00 | 69 | 1004.7 |
| 20260504174203 | 55 | 218 | 5.0 | 14.0 | 0.00 | 0.01 | 0.00 | 65 | 1004.7 |
| 20260504173202 | 58 | 205 | 8.0 | 15.0 | 0.00 | 0.01 | 0.00 | 59 | 1004.6 |
| 20260504172203 | 61 | 205 | 7.0 | 16.0 | 0.00 | 0.01 | 0.00 | 57 | 1004.6 |
| 20260504171226 | 61 | 216 | 5.0 | 16.0 | 0.00 | 0.01 | 0.00 | 54 | 1004.5 |
| 20260504170202 | 60 | 230 | 6.0 | 13.0 | 0.00 | 0.01 | 0.00 | 56 | 1004.5 |
| 20260504160203 | 56 | 212 | 8.0 | 18.0 | 0.00 | 0.01 | 0.00 | 63 | 1005.1 |
| 20260504150203 | 58 | 216 | 4.0 | 9.0 | 0.00 | 0.04 | 0.00 | 60 | 1005.6 |
| 20260504141203 | 54 | 200 | 5.0 | 11.0 | 0.00 | 0.05 | 0.00 | 68 | 1006.5 |
| 20260504140203 | 54 | 195 | 4.0 | 9.0 | 0.00 | 0.05 | 0.00 | 71 | 1006.6 |
| 20260504130225 | 51 | 243 | 4.0 | 9.0 | 0.00 | 0.05 | 0.00 | 68 | 1007.2 |
| 20260504120203 | 49 | 237 | 3.0 | 11.0 | 0.00 | 0.09 | 0.00 | 69 | 1007.2 |
| 20260504110203 | 43 | 247 | 2.0 | 7.0 | 0.00 | 0.13 | 0.00 | 77 | 1007.3 |
| 20260504100203 | 39 | 257 | 1.0 | 3.0 | 0.00 | 0.13 | 0.00 | 81 | 1007.2 |
| 20260504081202 | 38 | 238 | 3.0 | 6.0 | 0.00 | 0.16 | 0.00 | 83 | 1006.8 |
| 20260504080203 | 38 | 254 | 2.0 | 7.0 | 0.00 | 0.17 | 0.00 | 81 | 1006.9 |
| 20260504070204 | 37 | 245 | 3.0 | 6.0 | 0.00 | 0.21 | 0.00 | 87 | 1006.6 |
| 20260504060202 | 35 | 260 | 1.0 | 3.0 | 0.00 | 0.22 | 0.00 | 90 | 1006.6 |
| 20260504050204 | 36 | 249 | 1.0 | 3.0 | 0.00 | 0.22 | 0.00 | 85 | 1006.4 |
| 20260504045204 | 37 | 249 | 1.0 | 3.0 | 0.00 | 0.22 | 0.00 | 83 | 1006.3 |
| 20260504044203 | 37 | 249 | 1.0 | 4.0 | 0.00 | 0.22 | 0.00 | 81 | 1006.3 |
| 20260504043203 | 38 | 250 | 2.0 | 6.0 | 0.00 | 0.22 | 0.00 | 79 | 1006.4 |
| 20260504042203 | 38 | 250 | 1.0 | 3.0 | 0.00 | 0.22 | 0.00 | 77 | 1006.5 |
| 20260504041224 | 39 | 250 | 2.0 | 6.0 | 0.00 | 0.22 | 0.00 | 75 | 1006.3 |
| 20260504040203 | 40 | 249 | 2.0 | 7.0 | 0.00 | 0.22 | 0.00 | 73 | 1006.3 |
| 20260504035202 | 41 | 251 | 2.0 | 7.0 | 0.00 | 0.22 | 0.22 | 71 | 1006.2 |
| 20260504034203 | 42 | 258 | 3.0 | 8.0 | 0.00 | 0.22 | 0.22 | 70 | 1006.1 |
| 20260504033224 | 41 | 247 | 3.0 | 8.0 | 0.00 | 0.22 | 0.22 | 70 | 1006.0 |
| 20260504032202 | 42 | 289 | 2.0 | 10.0 | 0.00 | 0.22 | 0.22 | 70 | 1005.9 |
| 20260504031203 | 42 | 285 | 2.0 | 9.0 | 0.00 | 0.22 | 0.22 | 67 | 1005.8 |
| 20260504030203 | 43 | 247 | 4.0 | 8.0 | 0.00 | 0.22 | 0.22 | 67 | 1005.8 |
| 20260504025203 | 42 | 240 | 3.0 | 8.0 | 0.00 | 0.22 | 0.22 | 66 | 1005.7 |
| 20260504024203 | 42 | 269 | 2.0 | 9.0 | 0.00 | 0.22 | 0.22 | 69 | 1005.7 |
| 20260504023203 | 42 | 268 | 3.0 | 11.0 | 0.00 | 0.22 | 0.22 | 69 | 1005.6 |
| 20260504022223 | 43 | 245 | 2.0 | 9.0 | 0.00 | 0.22 | 0.22 | 68 | 1005.5 |
| 20260504021203 | 44 | 285 | 3.0 | 11.0 | 0.00 | 0.22 | 0.22 | 64 | 1005.4 |
| 20260504020223 | 44 | 328 | 4.0 | 12.0 | 0.00 | 0.22 | 0.22 | 63 | 1005.3 |
| 20260504015203 | 43 | 281 | 3.0 | 10.0 | 0.00 | 0.22 | 0.22 | 65 | 1005.2 |
| 20260504014203 | 43 | 217 | 2.0 | 10.0 | 0.00 | 0.22 | 0.22 | 67 | 1005.2 |
| 20260504013202 | 44 | 259 | 1.0 | 8.0 | 0.00 | 0.22 | 0.22 | 64 | 1005.1 |
| 20260504012203 | 45 | 291 | 3.0 | 9.0 | 0.00 | 0.22 | 0.22 | 62 | 1005.0 |
| 20260504011203 | 45 | 297 | 3.0 | 11.0 | 0.00 | 0.22 | 0.22 | 62 | 1004.8 |
| 20260504010204 | 45 | 299 | 3.0 | 10.0 | 0.00 | 0.22 | 0.22 | 63 | 1004.6 |
| 20260504005203 | 45 | 286 | 2.0 | 12.0 | 0.00 | 0.22 | 0.22 | 58 | 1004.4 |
| 20260504004202 | 45 | 318 | 5.0 | 13.0 | 0.00 | 0.22 | 0.22 | 59 | 1004.2 |
| 20260504003224 | 46 | 301 | 5.0 | 14.0 | 0.00 | 0.22 | 0.22 | 57 | 1004.0 |
| 20260504002223 | 47 | 308 | 6.0 | 13.0 | 0.00 | 0.22 | 0.22 | 55 | 1003.9 |
| 20260504001203 | 47 | 314 | 6.0 | 15.0 | 0.00 | 0.22 | 0.22 | 54 | 1003.7 |
| 20260504000204 | 47 | 299 | 5.0 | 17.0 | 0.00 | 0.22 | 0.22 | 55 | 1003.4 |
| 20260503235224 | 48 | 353 | 3.0 | 13.0 | 0.00 | 0.22 | 0.22 | 56 | 1003.3 |
| 20260503234203 | 48 | 309 | 6.0 | 13.0 | 0.00 | 0.22 | 0.22 | 59 | 1003.1 |
| 20260503233203 | 48 | 310 | 3.0 | 10.0 | 0.00 | 0.22 | 0.22 | 59 | 1002.9 |
| 20260503232203 | 49 | 326 | 2.0 | 12.0 | 0.00 | 0.22 | 0.22 | 61 | 1002.6 |
| 20260503231224 | 49 | 288 | 4.0 | 13.0 | 0.00 | 0.22 | 0.22 | 64 | 1002.5 |
| 20260503230203 | 49 | 317 | 3.0 | 10.0 | 0.00 | 0.22 | 0.22 | 70 | 1002.4 |
| 20260503225202 | 49 | 316 | 4.0 | 9.0 | 0.00 | 0.22 | 0.22 | 69 | 1002.2 |
| 20260503224204 | 49 | 262 | 4.0 | 8.0 | 0.00 | 0.22 | 0.22 | 72 | 1002.0 |
| 20260503223224 | 49 | 278 | 1.0 | 8.0 | 0.00 | 0.22 | 0.22 | 74 | 1001.9 |
| 20260503222223 | 49 | 297 | 3.0 | 8.0 | 0.00 | 0.22 | 0.22 | 74 | 1001.8 |
| 20260503221203 | 49 | 300 | 2.0 | 10.0 | 0.00 | 0.22 | 0.22 | 70 | 1001.7 |
| 20260503220203 | 50 | 299 | 3.0 | 11.0 | 0.00 | 0.22 | 0.22 | 69 | 1001.7 |
| 20260503215203 | 51 | 312 | 6.0 | 14.0 | 0.00 | 0.22 | 0.22 | 67 | 1001.5 |
| 20260503214203 | 51 | 342 | 3.0 | 11.0 | 0.00 | 0.22 | 0.22 | 71 | 1001.6 |
| 20260503213203 | 51 | 345 | 7.0 | 13.0 | 0.00 | 0.22 | 0.22 | 68 | 1001.6 |
| 20260503212203 | 50 | 327 | 6.0 | 13.0 | 0.00 | 0.22 | 0.22 | 71 | 1001.6 |
| 20260503211203 | 49 | 329 | 4.0 | 12.0 | 0.00 | 0.22 | 0.22 | 74 | 1001.6 |
| 20260503210223 | 50 | 333 | 5.0 | 13.0 | 0.00 | 0.22 | 0.22 | 73 | 1001.7 |
| 20260503205203 | 50 | 322 | 5.0 | 12.0 | 0.00 | 0.22 | 0.22 | 77 | 1001.7 |
| 20260503204203 | 50 | 325 | 4.0 | 13.0 | 0.00 | 0.22 | 0.22 | 77 | 1001.7 |
| 20260503203203 | 49 | 346 | 4.0 | 13.0 | 0.00 | 0.22 | 0.22 | 77 | 1001.7 |
| 20260503202224 | 49 | 303 | 7.0 | 14.0 | 0.00 | 0.22 | 0.22 | 79 | 1001.8 |
| 20260503201202 | 48 | 305 | 6.0 | 14.0 | 0.00 | 0.22 | 0.22 | 81 | 1001.9 |
| 20260503200224 | 49 | 296 | 4.0 | 17.0 | 0.00 | 0.22 | 0.22 | 85 | 1001.9 |
| 20260503195224 | 47 | 342 | 4.0 | 9.0 | 0.00 | 0.22 | 0.22 | 83 | 1001.9 |
| 20260503194203 | 47 | 348 | 4.0 | 11.0 | 0.00 | 0.22 | 0.22 | 84 | 1002.1 |
| 20260503193203 | 47 | 285 | 2.0 | 13.0 | 0.00 | 0.22 | 0.22 | 88 | 1002.2 |
| 20260503192224 | 46 | 32 | 4.0 | 13.0 | 0.00 | 0.22 | 0.22 | 85 | 1002.2 |
| 20260503191203 | 46 | 24 | 4.0 | 14.0 | 0.00 | 0.22 | 0.22 | 88 | 1002.3 |
| 20260503190203 | 45 | 350 | 7.0 | 15.0 | 0.00 | 0.22 | 0.22 | 89 | 1002.4 |
| 20260503185203 | 44 | 18 | 5.0 | 12.0 | 0.01 | 0.22 | 0.22 | 90 | 1002.5 |